[[{"header":{"parameterUnit":"m.s-1","parameterCategory":2,"la1":30.2991,"la2":30.254,"lo1":-89.0895,"lo2":-89.0444,"dy":0.0017,"dx":0.0017,"nx":28,"ny":28,"refTime":"2023-08-16T03:00:00:Z","depth":"0","parameterNumber":2,"parameterNumberName":"U-component_of_CURRENTS"},"data":[0,0,0,0,0,0,0,0,0,0,0,0,0,0,0,0,0,0,0,0,0,0,0,0,0,0,0,0,0,0,0,0,0,0,0,0,0,0,0,0,0,0,0,0,0,0,0,0,0,0,0,0,0,0,0,0,0,0,0.4138,0.4138,0,0.419,0.4192,0.4193,0.406,0.4054,0.4049,0.4044,0.4141,0.4148,0.4156,0,0,0,0,0,0,0,0,0,0,0,0,0,0.4039,0.4041,0.4138,0.4138,0.4137,0.419,0.4192,0.4194,0.4061,0.4054,0.4048,0.4042,0.4138,0.4147,0.4156,0,0,0,0,0,0,0,0,0,0,0,0,0,0.4097,0.4042,0.4138,0.4068,0.4061,0.4189,0.4192,0.4194,0.4062,0.4054,0.4046,0.4039,0.4135,0.4146,0.4158,0.4387,0,0,0.4192,0.4197,0,0,0,0,0,0,0,0,0.4094,0.4102,0.4079,0.4073,0.4065,0.4099,0.4191,0.4257,0.4064,0.4075,0.4044,0.4035,0.4129,0.414,0.4185,0.4392,0.4396,0.4193,0.42,0.4205,0.4208,0,0,0,0,0,0,0,0.409,0.41,0.4171,0.4079,0.4071,0.4072,0.4072,0.4205,0.4157,0.4073,0.4061,0.4049,0.4126,0.4175,0.4186,0.4397,0.4193,0.4203,0.421,0.4214,0.4568,0.457,0,0,0,0,0,0,0.4062,0.4097,0.4169,0.4171,0.4046,0.4079,0.408,0.4107,0.4154,0.4149,0.4056,0.4043,0.4159,0.4173,0.4189,0.4277,0.4205,0.4215,0.4222,0.4565,0.4568,0.4571,0,0,0,0,0,0,0.4061,0.4071,0.4167,0.4122,0.4132,0.4087,0.412,0.4112,0.4148,0.4138,0.4135,0.4096,0.4153,0.4173,0.4279,0.4286,0.422,0.4231,0.4562,0.4566,0.457,0.4574,0,0,0,0,0,0,0.4059,0.4071,0.4135,0.4122,0.4133,0.4289,0.4126,0.4118,0.4147,0.4131,0.4175,0.4174,0.4149,0.4262,0.429,0.43,0.424,0.4559,0.4564,0.4568,0.457,0.4577,0.4583,0,0,0,0,0,0.4056,0.4179,0.4139,0.4149,0.4207,0.4294,0.4307,0.4251,0.4157,0.4243,0.4205,0.4172,0.4309,0.4277,0.4308,0.4321,0.4556,0.4562,0.4568,0.4568,0.4576,0.4583,0,0,0,0,0,0,0.417,0.4176,0.4131,0.4247,0.4278,0.4266,0.4334,0.4291,0.434,0.4291,0.4259,0.4264,0.4347,0.4372,0.4336,0.4436,0.4412,0.4424,0.44,0.4409,0.4415,0.439,0.4249,0,0,0,0,0,0.4226,0.4313,0.4302,0.4399,0.4411,0.4381,0.4416,0.437,0.4378,0.4388,0.4391,0.4387,0.4415,0.4435,0.4493,0.4607,0.4625,0.4621,0.4628,0.4633,0.4635,0.4698,0.4709,0.459,0.459,0.459,0,0,0.4277,0.4305,0.4343,0.4429,0.443,0.4436,0.4387,0.4443,0.4418,0.4404,0.4417,0.4453,0.4459,0.4523,0.456,0.4531,0.4677,0.464,0.4643,0.4643,0.4705,0.4716,0.4726,0.4594,0.4593,0.4593,0,0,0.4364,0.446,0.4504,0.4543,0.4559,0.455,0.4567,0.4567,0.4552,0.4614,0.4534,0.4585,0.4665,0.4635,0.463,0.4745,0.4726,0.4747,0.4746,0.4807,0.4817,0.4825,0.4853,0.4863,0.4728,0.4728,0.4728,0,0.4393,0.4456,0.4544,0.4565,0.4567,0.4581,0.457,0.46,0.4623,0.4623,0.4612,0.4666,0.4703,0.4699,0.4703,0.4755,0.4773,0.4702,0.4812,0.4821,0.4829,0.4856,0.4868,0.4729,0.4729,0.4729,0.4729,0,0.4448,0.4501,0.4548,0.4545,0.4601,0.464,0.4628,0.4679,0.4662,0.4651,0.4705,0.4758,0.4766,0.4787,0.478,0.4831,0.4819,0.4825,0.4779,0.4841,0.4866,0.4878,0.473,0.473,0.473,0.4729,0,0,0.4441,0.4545,0.4549,0.4521,0.4585,0.4606,0.463,0.4647,0.4611,0.4694,0.4668,0.4753,0.478,0.4781,0.4786,0.4841,0.4932,0.4853,0.4856,0.4857,0.5041,0.4931,0.4934,0.4947,0.495,0.4952,0.5029,0,0.4407,0.4434,0.4507,0.4492,0.4481,0.4538,0.4548,0.4577,0.4615,0.463,0.4696,0.4712,0.4766,0.4767,0.4839,0.4913,0.4966,0.4909,0.5002,0.5004,0.4881,0.4945,0.4678,0.4716,0.5041,0.5043,0.5044,0,0.4366,0.4403,0.4388,0.4412,0.4409,0.4406,0.4419,0.444,0.4502,0.4537,0.4596,0.4643,0.4732,0.4774,0.4938,0.4894,0.4976,0.504,0.5044,0.4947,0.4917,0.4713,0.4726,0.4571,0.5063,0.5061,0.506,0,0.4253,0.4295,0.428,0.4292,0.4335,0.4327,0.435,0.4403,0.4411,0.4482,0.4499,0.4607,0.4655,0.4799,0.495,0.4952,0.5119,0.5136,0.5108,0.51,0.4894,0.4863,0.4745,0.526,0.526,0.526,0.5259,0,0.4176,0.4153,0.4218,0.4205,0.417,0.423,0.4201,0.425,0.4302,0.4309,0.4437,0.4461,0.4672,0.4784,0.4932,0.5046,0.5113,0.5119,0.5121,0.4887,0.4856,0.473,0.4689,0.5262,0.5262,0.5261,0.5261,0,0.4042,0.4094,0.4066,0.4108,0.4112,0.4084,0.4119,0.4103,0.4178,0.4193,0.4219,0.437,0.4531,0.4705,0.4928,0.4993,0.4976,0.515,0.4842,0.4806,0.4621,0.4591,0.4413,0.431,0.5134,0.5132,0.513,0,0.3978,0.3955,0.3983,0.3966,0.398,0.3966,0.3959,0.4034,0.4035,0.4135,0.4133,0.428,0.4369,0.4622,0.4765,0.4947,0.487,0.479,0.4762,0.457,0.4541,0.443,0.435,0.4495,0.4488,0.4482,0.4478,0,0.386,0.3872,0.3865,0.3843,0.3821,0.3801,0.3805,0.3788,0.3878,0.3903,0.3963,0.4041,0.425,0.4307,0.451,0.461,0.4506,0.468,0.4563,0.4095,0.3885,0.3796,0.4477,0.4427,0.4432,0.4436,0.4439,0.4441,0.3773,0.3741,0.3741,0.3705,0.3676,0.3629,0.3575,0.3601,0.3594,0.3614,0.3765,0.382,0.3908,0.4158,0.4225,0.4093,0.4202,0.399,0.3993,0.3917,0.3724,0.4281,0.4184,0.4188,0.4191,0.4193,0.4196,0,0.3671,0.365,0.3609,0.3547,0.3463,0.3503,0.3458,0.3398,0.3357,0.3438,0.3486,0.3485,0.3491,0.358,0.3526,0.342,0.3333,0.3317,0.3084,0.3068,0.3614,0.3489,0.3133,0.3133,0.3133,0.3134,0.3134,0.3134,0.3614,0.3546,0.3528,0.3367,0.3311,0.3176,0.3134,0.3079,0.31,0.3026,0.3,0.3053,0.3103,0.304,0.2896,0.2846,0.2687,0.2511,0.2625,0.2974,0.3036,0.3096,0.2966,0.2506,0.2505,0.1908,0.1903,0.19]},{"header":{"parameterUnit":"m.s-1","parameterCategory":2,"la1":30.2991,"la2":30.254,"lo1":-89.0895,"lo2":-89.0444,"dy":0.0017,"dx":0.0017,"nx":28,"ny":28,"refTime":"2023-08-16T03:00:00:Z","depth":"0","parameterNumber":3,"parameterNumberName":"V-component_of_CURRENTS"},"data":[0,0,0,0,0,0,0,0,0,0,0,0,0,0,0,0,0,0,0,0,0,0,0,0,0,0,0,0,0,0,0,0,0,0,0,0,0,0,0,0,0,0,0,0,0,0,0,0,0,0,0,0,0,0,0,0,0,0,0.063,0.063,0,0.0672,0.0673,0.0673,0.0653,0.0651,0.065,0.0648,0.0713,0.0716,0.0719,0,0,0,0,0,0,0,0,0,0,0,0,0,0.0572,0.0574,0.063,0.063,0.063,0.0672,0.0673,0.0674,0.0653,0.0651,0.0649,0.0648,0.0712,0.0716,0.0719,0,0,0,0,0,0,0,0,0,0,0,0,0,0.0608,0.0574,0.063,0.0622,0.0621,0.0671,0.0673,0.0674,0.0653,0.0651,0.0649,0.0647,0.0711,0.0715,0.072,0.0792,0,0,0.0734,0.0736,0,0,0,0,0,0,0,0,0.0606,0.0611,0.0623,0.0623,0.0622,0.0651,0.0676,0.0713,0.0654,0.0646,0.0648,0.0646,0.0693,0.0699,0.0718,0.0795,0.0798,0.0734,0.0737,0.0739,0.074,0,0,0,0,0,0,0,0.0603,0.0609,0.0651,0.0623,0.0623,0.0629,0.0632,0.0683,0.0685,0.0646,0.0644,0.0643,0.0693,0.0713,0.0719,0.0799,0.0734,0.0738,0.0741,0.0743,0.0949,0.0952,0,0,0,0,0,0,0.0591,0.0607,0.0649,0.0652,0.0604,0.0632,0.0635,0.0647,0.0684,0.0686,0.0644,0.0641,0.0706,0.0714,0.0721,0.0825,0.0739,0.0743,0.0746,0.0946,0.095,0.0953,0,0,0,0,0,0,0.059,0.0595,0.0648,0.0626,0.0632,0.0634,0.0649,0.0649,0.0672,0.0681,0.0684,0.0665,0.0705,0.0715,0.0776,0.0826,0.0745,0.075,0.0943,0.0947,0.0951,0.1022,0,0,0,0,0,0,0.0588,0.0595,0.0612,0.0625,0.0633,0.0702,0.0651,0.0652,0.0672,0.0669,0.0701,0.0704,0.0704,0.0769,0.078,0.0831,0.0753,0.094,0.0945,0.095,0.1016,0.1028,0.1038,0,0,0,0,0,0.0586,0.0649,0.0613,0.0618,0.0653,0.0704,0.0712,0.0706,0.0675,0.0713,0.0718,0.0703,0.0809,0.0775,0.0788,0.0841,0.0937,0.0944,0.095,0.1012,0.1026,0.1038,0,0,0,0,0,0,0.0649,0.0652,0.0613,0.0674,0.0683,0.0699,0.0741,0.072,0.0756,0.0752,0.0743,0.075,0.0821,0.0829,0.0791,0.0916,0.087,0.0879,0.0913,0.0927,0.0938,0.0973,0.0757,0,0,0,0,0,0.0661,0.0705,0.069,0.0742,0.0746,0.0736,0.0756,0.0749,0.0772,0.0784,0.08,0.0824,0.0861,0.0887,0.0926,0.1003,0.0989,0.1046,0.1056,0.1065,0.1105,0.1127,0.1143,0.0973,0.0973,0.0972,0,0,0.0696,0.0708,0.0729,0.0757,0.0762,0.0798,0.0747,0.0795,0.0833,0.079,0.0867,0.0869,0.0889,0.0966,0.0999,0.0976,0.1098,0.1073,0.108,0.1116,0.1135,0.1151,0.1166,0.0977,0.0976,0.0975,0,0,0.0789,0.0797,0.0843,0.0859,0.0869,0.0875,0.0886,0.0902,0.0918,0.0981,0.0952,0.0994,0.1054,0.1081,0.1098,0.1204,0.1153,0.1201,0.1291,0.1312,0.1325,0.1338,0.1294,0.1302,0.1208,0.1208,0.1208,0,0.0813,0.087,0.087,0.0911,0.0933,0.0908,0.0952,0.0986,0.1022,0.1053,0.1021,0.1112,0.1121,0.1209,0.1234,0.1233,0.1202,0.1231,0.1324,0.1336,0.1348,0.13,0.1308,0.1212,0.1212,0.1212,0.1211,0,0.0924,0.0958,0.1002,0.1032,0.1067,0.112,0.113,0.118,0.1183,0.1199,0.1283,0.1294,0.1342,0.1347,0.1323,0.1413,0.1347,0.1327,0.1284,0.1369,0.1313,0.132,0.1218,0.1217,0.1216,0.1215,0,0,0.0994,0.1055,0.1064,0.1082,0.113,0.1171,0.1256,0.132,0.1378,0.1414,0.1487,0.1547,0.1528,0.1549,0.1519,0.1543,0.1569,0.147,0.1469,0.1415,0.1558,0.1466,0.1463,0.1547,0.155,0.1552,0.1468,0,0.106,0.1143,0.1168,0.1257,0.1296,0.1316,0.14,0.146,0.1503,0.1578,0.1598,0.1657,0.1609,0.1618,0.1642,0.1606,0.1599,0.1592,0.1497,0.1494,0.1394,0.1474,0.1378,0.1293,0.1474,0.1475,0.1476,0,0.1143,0.1191,0.1269,0.135,0.137,0.1427,0.1541,0.1609,0.1706,0.1739,0.1799,0.1794,0.1856,0.178,0.1782,0.1769,0.1677,0.163,0.1625,0.1534,0.1419,0.125,0.1298,0.1114,0.1485,0.1485,0.1484,0,0.1177,0.1264,0.1327,0.1354,0.1444,0.1498,0.1555,0.166,0.1734,0.1831,0.1884,0.1939,0.196,0.1915,0.1829,0.1797,0.1795,0.1731,0.1555,0.1543,0.1448,0.1424,0.1308,0.1713,0.1713,0.1714,0.1714,0,0.1235,0.1285,0.1345,0.1381,0.1479,0.1531,0.1646,0.1716,0.1826,0.1927,0.1955,0.2037,0.1996,0.1983,0.1878,0.1756,0.1831,0.1598,0.1543,0.1463,0.1443,0.1267,0.12,0.171,0.1711,0.1712,0.1712,0,0.1247,0.1284,0.1361,0.1455,0.1489,0.1554,0.1677,0.1769,0.1867,0.1994,0.2027,0.2116,0.2109,0.2031,0.195,0.1809,0.1587,0.1619,0.1499,0.1433,0.108,0.1022,0.0907,0.0847,0.1411,0.1409,0.1407,0,0.1252,0.1294,0.1394,0.1437,0.1473,0.1572,0.1654,0.1774,0.1878,0.205,0.2123,0.2156,0.2214,0.2067,0.1841,0.1636,0.1498,0.1354,0.1296,0.1076,0.097,0.0941,0.0899,0.1165,0.1161,0.1158,0.1155,0,0.1268,0.1301,0.1354,0.144,0.1518,0.1632,0.1755,0.1841,0.1998,0.2123,0.2286,0.2347,0.2199,0.1995,0.1691,0.152,0.1214,0.1279,0.1109,0.0836,0.0745,0.0654,0.1158,0.1128,0.113,0.1132,0.1134,0.1135,0.1274,0.13,0.1367,0.1453,0.1544,0.1689,0.1784,0.1934,0.2108,0.2314,0.2379,0.249,0.2117,0.1722,0.1484,0.0907,0.1007,0.0701,0.0661,0.066,0.0584,0.1003,0.0883,0.0884,0.0886,0.0887,0.0887,0,0.1284,0.1317,0.1382,0.1489,0.159,0.1661,0.1857,0.1976,0.2171,0.2367,0.2521,0.2346,0.1894,0.1434,0.0677,0.0342,0.0274,0.0161,0.0095,0.0095,0.0494,0.0461,0.0177,0.0177,0.0177,0.0177,0.0177,0.0178,0.1294,0.1336,0.1369,0.1516,0.1598,0.1757,0.1876,0.2063,0.2237,0.2419,0.2458,0.2479,0.2013,0.0781,-0.0043,-0.0201,-0.0341,-0.0411,-0.042,-0.0187,-0.014,-0.0095,-0.0143,-0.0549,-0.055,-0.0821,-0.0824,-0.0826]}],[{"header":{"parameterUnit":"m.s-1","parameterCategory":2,"la1":30.2991,"la2":30.254,"lo1":-89.0895,"lo2":-89.0444,"dy":0.0017,"dx":0.0017,"nx":28,"ny":28,"refTime":"2023-08-16T03:00:00:Z","depth":"2","parameterNumber":2,"parameterNumberName":"U-component_of_CURRENTS"},"data":[0,0,0,0,0,0,0,0,0,0,0,0,0,0,0,0,0,0,0,0,0,0,0,0,0,0,0,0,0,0,0,0,0,0,0,0,0,0,0,0,0,0,0,0,0,0,0,0,0,0,0,0,0,0,0,0,0,0,0.2959,0.2959,0,0.2886,0.2884,0.2882,0.2868,0.2869,0.2871,0.2873,0.3044,0.3046,0.3049,0,0,0,0,0,0,0,0,0,0,0,0,0,0.2895,0.2897,0.2959,0.2959,0.2959,0.2887,0.2884,0.2882,0.2867,0.287,0.2872,0.2874,0.3043,0.3046,0.3049,0,0,0,0,0,0,0,0,0,0,0,0,0,0.287,0.2897,0.2959,0.2953,0.2953,0.2887,0.2884,0.2881,0.2867,0.287,0.2872,0.2875,0.3042,0.3046,0.305,0.3022,0,0,0.3063,0.3065,0,0,0,0,0,0,0,0,0.2872,0.2871,0.2954,0.2954,0.2954,0.2901,0.2925,0.2945,0.2866,0.2885,0.2873,0.2876,0.3026,0.3031,0.2988,0.303,0.3037,0.3063,0.3066,0.3068,0.3069,0,0,0,0,0,0,0,0.2874,0.2873,0.2916,0.2954,0.2954,0.2891,0.2891,0.2926,0.2935,0.2884,0.2886,0.2899,0.3026,0.2984,0.2993,0.304,0.3063,0.3067,0.307,0.3071,0.3398,0.3404,0,0,0,0,0,0,0.2918,0.2876,0.2919,0.2915,0.2934,0.2892,0.289,0.2904,0.2929,0.2938,0.2897,0.2899,0.2975,0.2988,0.3,0.3151,0.3068,0.3072,0.3074,0.3392,0.34,0.3406,0,0,0,0,0,0,0.2916,0.2922,0.2922,0.2904,0.2902,0.2893,0.2906,0.2901,0.2883,0.2939,0.295,0.2889,0.2978,0.2994,0.3154,0.3152,0.3074,0.3078,0.3385,0.3395,0.3403,0.3339,0,0,0,0,0,0,0.2915,0.2922,0.2914,0.2908,0.2905,0.2932,0.2905,0.2898,0.2892,0.2894,0.2936,0.2952,0.2981,0.3148,0.3158,0.3157,0.3081,0.3377,0.3389,0.34,0.3334,0.3345,0.3355,0,0,0,0,0,0.2912,0.2792,0.2914,0.2919,0.2907,0.2935,0.2927,0.2918,0.289,0.2902,0.2993,0.2952,0.3227,0.3157,0.3167,0.3166,0.3372,0.3386,0.3399,0.3329,0.3343,0.3355,0,0,0,0,0,0,0.2734,0.2784,0.2914,0.2824,0.2952,0.294,0.2912,0.2919,0.2972,0.299,0.3026,0.3053,0.3203,0.3226,0.3146,0.3316,0.3292,0.3309,0.3236,0.3249,0.3259,0.3151,0.3085,0,0,0,0,0,0.2724,0.2745,0.2811,0.2836,0.2849,0.291,0.2904,0.2935,0.2991,0.3007,0.3095,0.3182,0.3254,0.3289,0.3398,0.3456,0.3436,0.348,0.349,0.3497,0.3432,0.3447,0.3447,0.3452,0.3451,0.3451,0,0,0.2708,0.2748,0.2772,0.282,0.2899,0.2901,0.2909,0.2935,0.2955,0.3027,0.3123,0.3245,0.3302,0.3413,0.3473,0.3425,0.3505,0.3515,0.3518,0.3448,0.346,0.3458,0.3456,0.3461,0.3459,0.3458,0,0,0.2688,0.2709,0.2717,0.2777,0.2896,0.2905,0.2925,0.2991,0.302,0.3138,0.3217,0.3343,0.3465,0.3506,0.3516,0.3645,0.3594,0.3714,0.3613,0.3631,0.3625,0.3621,0.3627,0.3623,0.3673,0.3673,0.3673,0,0.2686,0.2688,0.2741,0.2758,0.2786,0.2906,0.2906,0.2927,0.3081,0.3122,0.319,0.3396,0.3466,0.3499,0.3563,0.3642,0.366,0.353,0.3626,0.3621,0.3617,0.3625,0.3621,0.3671,0.3671,0.3671,0.3672,0,0.2657,0.268,0.2678,0.2775,0.2803,0.2831,0.2891,0.2968,0.3033,0.3091,0.324,0.3377,0.348,0.3535,0.3557,0.3588,0.3618,0.3658,0.3546,0.3609,0.3619,0.3615,0.3669,0.367,0.367,0.367,0,0,0.2587,0.2646,0.265,0.272,0.2788,0.2811,0.2845,0.2894,0.2914,0.3082,0.3115,0.3253,0.3366,0.3393,0.3491,0.3474,0.3482,0.3535,0.3537,0.3456,0.3521,0.3394,0.3379,0.3541,0.354,0.3539,0.3547,0,0.2591,0.2585,0.2598,0.2658,0.2654,0.274,0.277,0.2849,0.2934,0.3025,0.3101,0.3224,0.3291,0.3382,0.3375,0.3508,0.3468,0.3475,0.3546,0.3546,0.3352,0.3367,0.3144,0.3119,0.3543,0.3543,0.3542,0,0.2508,0.2529,0.2526,0.2614,0.2615,0.2654,0.2716,0.2769,0.2867,0.2953,0.3045,0.3158,0.3221,0.327,0.3362,0.338,0.3416,0.346,0.3463,0.3335,0.3409,0.3132,0.3097,0.3536,0.3536,0.3537,0.3537,0,0.2398,0.2451,0.245,0.2476,0.2572,0.2602,0.2658,0.2758,0.2808,0.2931,0.3005,0.3102,0.3207,0.3243,0.3365,0.3378,0.3433,0.3475,0.3361,0.3355,0.3162,0.3138,0.3442,0.3442,0.3442,0.3442,0.3442,0,0.2304,0.2327,0.2412,0.2414,0.2446,0.2548,0.2599,0.2677,0.2791,0.2857,0.299,0.3065,0.3207,0.3278,0.3332,0.334,0.3417,0.3298,0.3326,0.3148,0.3124,0.3484,0.3489,0.3442,0.3442,0.3442,0.3442,0,0.2207,0.2256,0.2274,0.236,0.2399,0.2427,0.2562,0.2593,0.2744,0.283,0.2877,0.3054,0.3172,0.3264,0.3359,0.3313,0.3328,0.3296,0.3069,0.3064,0.3238,0.3242,0.3139,0.3134,0.3129,0.3126,0.3123,0,0.2143,0.2138,0.2208,0.2219,0.2272,0.2345,0.239,0.2549,0.2597,0.2818,0.2839,0.3,0.3095,0.3178,0.3134,0.3135,0.3259,0.2878,0.2809,0.3157,0.3197,0.3207,0.3216,0.2572,0.2565,0.2559,0.2555,0,0.2021,0.2058,0.2069,0.2097,0.214,0.2193,0.2284,0.2322,0.2512,0.2616,0.2762,0.2862,0.2951,0.2864,0.2849,0.2811,0.2858,0.275,0.3181,0.2671,0.2619,0.266,0.2689,0.2502,0.2507,0.2511,0.2514,0.2516,0.1922,0.1908,0.192,0.1964,0.2003,0.2049,0.2067,0.2176,0.227,0.2386,0.2532,0.2611,0.2626,0.2498,0.2423,0.2356,0.253,0.241,0.2431,0.2457,0.2376,0.2318,0.213,0.2133,0.2135,0.2138,0.214,0,0.1773,0.1792,0.179,0.1822,0.1825,0.1921,0.1987,0.199,0.2073,0.2167,0.2242,0.2051,0.2023,0.2108,0.1919,0.1849,0.1855,0.1785,0.1805,0.1856,0.1902,0.1796,0.1395,0.1393,0.1391,0.1389,0,0,0.1682,0.165,0.1678,0.1654,0.1696,0.1696,0.1728,0.1756,0.1805,0.1768,0.178,0.1862,0.2022,0.1671,0.1597,0.1499,0.167,0.1431,0.2027,0.2102,0.2146,0.2255,0.2147,0,0,0,0,0]},{"header":{"parameterUnit":"m.s-1","parameterCategory":2,"la1":30.2991,"la2":30.254,"lo1":-89.0895,"lo2":-89.0444,"dy":0.0017,"dx":0.0017,"nx":28,"ny":28,"refTime":"2023-08-16T03:00:00:Z","depth":"2","parameterNumber":3,"parameterNumberName":"V-component_of_CURRENTS"},"data":[0,0,0,0,0,0,0,0,0,0,0,0,0,0,0,0,0,0,0,0,0,0,0,0,0,0,0,0,0,0,0,0,0,0,0,0,0,0,0,0,0,0,0,0,0,0,0,0,0,0,0,0,0,0,0,0,0,0,0.0053,0.0053,0,-0.0035,-0.0036,-0.0038,-0.0055,-0.0053,-0.0052,-0.0051,-0.0214,-0.0219,-0.0225,0,0,0,0,0,0,0,0,0,0,0,0,0,0.0033,0.0034,0.0053,0.0053,0.0052,-0.0035,-0.0037,-0.0038,-0.0055,-0.0053,-0.0052,-0.005,-0.0212,-0.0219,-0.0225,0,0,0,0,0,0,0,0,0,0,0,0,0,-0.0003,0.0034,0.0053,0.0038,0.0037,-0.0034,-0.0037,-0.0039,-0.0055,-0.0053,-0.0051,-0.0049,-0.021,-0.0218,-0.0226,-0.0317,0,0,-0.0252,-0.0255,0,0,0,0,0,0,0,0,-0.0,-0.0003,0.0041,0.0039,0.0037,-0.0026,-0.0103,-0.0133,-0.0056,-0.0027,-0.0051,-0.0048,-0.0155,-0.0168,-0.0197,-0.0324,-0.0331,-0.0252,-0.0257,-0.0261,-0.0263,0,0,0,0,0,0,0,0.0002,0.0,0.0012,0.0041,0.0038,-0.0023,-0.0025,-0.011,-0.0108,-0.003,-0.0029,-0.0029,-0.0157,-0.0189,-0.0201,-0.0334,-0.0252,-0.026,-0.0265,-0.0268,-0.0413,-0.0412,0,0,0,0,0,0,0.0034,0.0003,0.0015,0.001,0.003,-0.0023,-0.0026,-0.0013,-0.0105,-0.0115,-0.0031,-0.003,-0.0176,-0.0191,-0.0207,-0.0254,-0.0261,-0.0269,-0.0274,-0.0415,-0.0413,-0.0412,0,0,0,0,0,0,0.0034,0.0036,0.0018,0.0009,0.0003,-0.0023,-0.001,-0.0016,-0.0038,-0.0104,-0.0116,-0.0044,-0.0175,-0.0195,-0.0261,-0.0262,-0.0273,-0.028,-0.0416,-0.0414,-0.0413,-0.039,0,0,0,0,0,0,0.0033,0.0036,0.0024,0.0012,0.0005,-0.0048,-0.0011,-0.0019,-0.0038,-0.0038,-0.0121,-0.0134,-0.0175,-0.0248,-0.0269,-0.0274,-0.0287,-0.0417,-0.0415,-0.0413,-0.0392,-0.0388,-0.0384,0,0,0,0,0,0.0033,-0.0012,0.0025,0.0024,0.0001,-0.005,-0.0062,-0.0078,-0.004,-0.0084,-0.0098,-0.0131,-0.0248,-0.0256,-0.0281,-0.0287,-0.0418,-0.0416,-0.0413,-0.0394,-0.0389,-0.0384,0,0,0,0,0,0,-0.0038,-0.0016,0.0022,-0.0012,-0.0026,-0.005,-0.0085,-0.0079,-0.0126,-0.0109,-0.015,-0.0168,-0.0214,-0.0253,-0.026,-0.0313,-0.0327,-0.0329,-0.0303,-0.0299,-0.0295,-0.0316,-0.0294,0,0,0,0,0,-0.0048,-0.0098,-0.0048,-0.0103,-0.0066,-0.0064,-0.0088,-0.0091,-0.0116,-0.0133,-0.0179,-0.0205,-0.0228,-0.0264,-0.0308,-0.0373,-0.0406,-0.0377,-0.0373,-0.037,-0.0398,-0.041,-0.041,-0.0404,-0.0404,-0.0404,0,0,-0.0099,-0.0102,-0.0127,-0.0126,-0.0111,-0.0111,-0.0076,-0.0107,-0.0137,-0.0148,-0.0209,-0.021,-0.0238,-0.0283,-0.0307,-0.0319,-0.0389,-0.0367,-0.0364,-0.0395,-0.0407,-0.0409,-0.041,-0.0402,-0.0402,-0.0403,0,0,-0.0218,-0.0188,-0.0224,-0.022,-0.0199,-0.019,-0.0185,-0.0177,-0.0184,-0.0246,-0.0213,-0.0214,-0.0306,-0.0299,-0.0307,-0.0314,-0.0361,-0.031,-0.0329,-0.0338,-0.034,-0.0342,-0.0392,-0.0399,-0.0315,-0.0315,-0.0315,0,-0.0247,-0.0272,-0.0258,-0.0264,-0.0243,-0.0207,-0.019,-0.0225,-0.027,-0.0248,-0.0268,-0.0286,-0.0314,-0.0306,-0.0296,-0.0311,-0.0335,-0.0348,-0.0336,-0.0338,-0.0341,-0.0392,-0.04,-0.0313,-0.0314,-0.0314,-0.0314,0,-0.0359,-0.0354,-0.0368,-0.0342,-0.0351,-0.0345,-0.0313,-0.0321,-0.0304,-0.0318,-0.0314,-0.0342,-0.0333,-0.033,-0.0334,-0.0329,-0.0348,-0.0324,-0.0356,-0.0341,-0.0395,-0.0403,-0.0311,-0.0312,-0.0312,-0.0313,0,0,-0.0409,-0.0419,-0.0414,-0.036,-0.0352,-0.0343,-0.0366,-0.0326,-0.0276,-0.036,-0.0314,-0.0364,-0.0336,-0.0341,-0.0318,-0.0346,-0.0381,-0.035,-0.0351,-0.0415,-0.0437,-0.0375,-0.0379,-0.035,-0.0351,-0.0352,-0.0473,0,-0.0435,-0.0434,-0.0459,-0.0438,-0.0368,-0.0334,-0.0348,-0.0342,-0.0323,-0.0297,-0.0314,-0.0292,-0.0354,-0.0301,-0.0351,-0.0333,-0.0401,-0.0353,-0.0431,-0.0435,-0.0392,-0.0384,-0.0352,-0.045,-0.0481,-0.0483,-0.0484,0,-0.0462,-0.0453,-0.0412,-0.035,-0.0306,-0.0321,-0.0207,-0.0224,-0.0201,-0.0184,-0.0191,-0.0202,-0.0231,-0.0275,-0.0371,-0.0334,-0.0411,-0.0448,-0.0452,-0.0415,-0.0387,-0.0466,-0.0464,-0.0498,-0.0497,-0.0496,-0.0495,0,-0.0409,-0.0387,-0.0336,-0.0322,-0.0282,-0.0236,-0.0205,-0.0169,-0.0113,-0.0088,-0.003,-0.0114,-0.0085,-0.0223,-0.0313,-0.0339,-0.0419,-0.0449,-0.0503,-0.0502,-0.0503,-0.0498,-0.0572,-0.0572,-0.0571,-0.0571,-0.0571,0,-0.037,-0.0327,-0.0292,-0.0256,-0.0163,-0.0162,-0.0053,-0.0023,0.0036,0.0128,0.0047,0.0109,-0.0066,-0.0123,-0.0282,-0.0395,-0.0402,-0.0526,-0.0522,-0.0492,-0.0484,-0.0543,-0.0538,-0.0576,-0.0575,-0.0574,-0.0573,0,-0.0316,-0.0303,-0.0222,-0.0159,-0.0128,-0.0052,0.0054,0.0139,0.0179,0.0309,0.0324,0.029,0.0217,0.0034,-0.0137,-0.0291,-0.0434,-0.0485,-0.0453,-0.0442,-0.0549,-0.0541,-0.0605,-0.0604,-0.0603,-0.0602,-0.0601,0,-0.0286,-0.0241,-0.014,-0.0071,-0.0035,0.0071,0.0154,0.0212,0.0313,0.0435,0.0512,0.0481,0.0493,0.0252,-0.0026,-0.0301,-0.0363,-0.0454,-0.0508,-0.056,-0.055,-0.0544,-0.0538,-0.0527,-0.0525,-0.0524,-0.0523,0,-0.0214,-0.0178,-0.0111,0.0026,0.0132,0.0252,0.0379,0.0481,0.058,0.0693,0.0834,0.0853,0.0639,0.0398,0.0049,-0.0148,-0.0409,-0.044,-0.0481,-0.049,-0.0485,-0.0475,-0.0472,-0.0514,-0.0515,-0.0515,-0.0516,-0.0516,-0.0155,-0.0085,0.0014,0.0145,0.0267,0.0434,0.056,0.0711,0.089,0.1055,0.1023,0.1052,0.0743,0.0312,0.004,-0.0268,-0.0321,-0.0474,-0.0478,-0.0484,-0.0419,-0.0409,-0.0416,-0.0416,-0.0416,-0.0417,-0.0417,0,-0.007,0.0004,0.0129,0.0299,0.0449,0.0491,0.071,0.086,0.1102,0.118,0.1253,0.0963,0.0719,0.041,-0.0026,-0.0306,-0.0356,-0.0387,-0.0411,-0.0419,-0.0427,-0.036,-0.0341,-0.0341,-0.0341,-0.0341,0,0,-0.0015,0.0108,0.0172,0.0425,0.0546,0.0757,0.0891,0.1122,0.1245,0.132,0.1288,0.1149,0.0808,0.0487,0.0115,-0.0086,-0.0184,-0.0129,-0.017,-0.0164,-0.0167,-0.0468,-0.0372,0,0,0,0,0]}],[{"header":{"parameterUnit":"m.s-1","parameterCategory":2,"la1":30.2991,"la2":30.254,"lo1":-89.0895,"lo2":-89.0444,"dy":0.0017,"dx":0.0017,"nx":28,"ny":28,"refTime":"2023-08-16T03:00:00:Z","depth":"4","parameterNumber":2,"parameterNumberName":"U-component_of_CURRENTS"},"data":[0,0,0,0,0,0,0,0,0,0,0,0,0,0,0,0,0,0,0,0,0,0,0,0,0,0,0,0,0,0,0,0,0,0,0,0,0,0,0,0,0,0,0,0,0,0,0,0,0,0,0,0,0,0,0,0,0,0,0.1189,0.119,0,0.1134,0.1133,0.1132,0.1157,0.1159,0.1161,0.1163,0.0978,0.0972,0.0965,0,0,0,0,0,0,0,0,0,0,0,0,0,0.1199,0.1198,0.1189,0.119,0.119,0.1134,0.1133,0.1131,0.1156,0.1159,0.1162,0.1164,0.0981,0.0972,0.0964,0,0,0,0,0,0,0,0,0,0,0,0,0,0.1166,0.1198,0.1189,0.1202,0.1203,0.1135,0.1133,0.1131,0.1156,0.1159,0.1162,0.1165,0.0983,0.0973,0.0963,0.0833,0,0,0.0931,0.0926,0,0,0,0,0,0,0,0,0.1168,0.1164,0.12,0.1201,0.1203,0.1164,0.1069,0.1028,0.1155,0.1164,0.1163,0.1167,0.1031,0.1017,0.0989,0.0824,0.0816,0.093,0.0924,0.0919,0.0916,0,0,0,0,0,0,0,0.117,0.1166,0.1159,0.12,0.1202,0.1171,0.117,0.106,0.1071,0.1164,0.1168,0.1175,0.1031,0.0999,0.0984,0.0813,0.093,0.0921,0.0915,0.091,0.0775,0.0777,0,0,0,0,0,0,0.1197,0.1169,0.1161,0.1158,0.1203,0.1169,0.1168,0.1165,0.1075,0.1068,0.1172,0.1176,0.1015,0.0997,0.0978,0.099,0.0919,0.0909,0.0903,0.0772,0.0775,0.0778,0,0,0,0,0,0,0.1197,0.1196,0.1163,0.117,0.1165,0.1167,0.1163,0.1163,0.1181,0.1084,0.1074,0.1199,0.1017,0.0993,0.0941,0.0977,0.0905,0.0895,0.0769,0.0773,0.0777,0.0904,0,0,0,0,0,0,0.1197,0.1196,0.1184,0.1171,0.1166,0.1119,0.1161,0.116,0.1182,0.1188,0.1101,0.1086,0.1018,0.0957,0.093,0.0961,0.0887,0.0766,0.0771,0.0776,0.0896,0.0912,0.0925,0,0,0,0,0,0.1198,0.1138,0.1183,0.1182,0.1155,0.1118,0.111,0.1117,0.1181,0.1154,0.1149,0.1091,0.0972,0.0949,0.0917,0.0946,0.0763,0.0769,0.0775,0.089,0.0909,0.0924,0,0,0,0,0,0,0.1112,0.1136,0.1185,0.1135,0.1144,0.1127,0.1094,0.114,0.1114,0.1141,0.1084,0.1063,0.1034,0.0976,0.0954,0.0933,0.0872,0.0872,0.0971,0.0987,0.1001,0.1069,0.0878,0,0,0,0,0,0.1101,0.1073,0.111,0.1068,0.1083,0.1113,0.1103,0.1133,0.1121,0.1118,0.1054,0.103,0.102,0.0999,0.0928,0.0888,0.0854,0.0904,0.0919,0.0931,0.0971,0.0938,0.0952,0.0798,0.0798,0.0798,0,0,0.106,0.1065,0.1053,0.1051,0.1063,0.1072,0.1111,0.1109,0.1135,0.1092,0.1058,0.104,0.1019,0.0993,0.0979,0.0958,0.0959,0.0939,0.0949,0.0984,0.0945,0.096,0.0973,0.0802,0.0801,0.0801,0,0,0.0973,0.098,0.0959,0.0971,0.101,0.1027,0.1052,0.1058,0.1081,0.1082,0.1084,0.1125,0.1031,0.1055,0.1067,0.1121,0.1022,0.1086,0.1215,0.1182,0.1194,0.1204,0.1185,0.1192,0.1109,0.1109,0.1109,0,0.0939,0.0931,0.0939,0.094,0.0964,0.103,0.1052,0.1063,0.1048,0.1074,0.1092,0.1093,0.1094,0.114,0.122,0.1156,0.1106,0.1146,0.1199,0.1208,0.1217,0.1194,0.1201,0.1116,0.1115,0.1115,0.1114,0,0.0874,0.0881,0.0861,0.091,0.0915,0.0927,0.0992,0.0992,0.1067,0.1108,0.1154,0.117,0.1196,0.1223,0.1272,0.1337,0.1271,0.1202,0.1152,0.124,0.121,0.1215,0.1126,0.1123,0.1121,0.112,0,0,0.0788,0.0823,0.0825,0.0868,0.0923,0.0925,0.0966,0.1033,0.1095,0.1119,0.12,0.1298,0.1334,0.1359,0.1377,0.1429,0.1512,0.1384,0.1379,0.1362,0.1429,0.1347,0.1343,0.1417,0.1418,0.1419,0.1386,0,0.0769,0.0772,0.08,0.0831,0.0859,0.0928,0.0966,0.1032,0.1101,0.1156,0.1269,0.1338,0.1369,0.1437,0.1481,0.1497,0.1528,0.1528,0.1352,0.1349,0.126,0.1348,0.1424,0.1388,0.1389,0.139,0.139,0,0.0731,0.0741,0.0773,0.0848,0.0873,0.0901,0.0996,0.1046,0.1154,0.1219,0.1301,0.136,0.1496,0.1507,0.154,0.1518,0.1517,0.1523,0.1517,0.1408,0.1276,0.1281,0.1397,0.1397,0.1396,0.1396,0.1395,0,0.0688,0.0732,0.0764,0.0784,0.0866,0.0908,0.0974,0.1069,0.1142,0.1272,0.1348,0.1417,0.1508,0.1495,0.1565,0.1545,0.1572,0.1503,0.1405,0.1397,0.1419,0.1408,0.1517,0.1517,0.1517,0.1517,0.1517,0,0.0657,0.068,0.075,0.0766,0.0827,0.0903,0.0994,0.106,0.1191,0.1278,0.1386,0.1444,0.1518,0.1546,0.1554,0.1501,0.1527,0.1465,0.1394,0.1474,0.147,0.1422,0.1411,0.1516,0.1516,0.1516,0.1517,0,0.059,0.0644,0.0682,0.0771,0.0809,0.0856,0.101,0.1069,0.1201,0.1313,0.138,0.1494,0.1523,0.1549,0.1561,0.1488,0.1455,0.1419,0.1542,0.1471,0.1303,0.13,0.1297,0.1294,0.1292,0.129,0.1288,0,0.0554,0.0563,0.0661,0.0703,0.0747,0.0841,0.0909,0.1058,0.1116,0.1311,0.1344,0.1463,0.1512,0.1442,0.1467,0.1416,0.1398,0.1357,0.1346,0.1356,0.1287,0.1287,0.1287,0.1284,0.1284,0.1283,0.1282,0,0.0484,0.0529,0.0564,0.0635,0.0707,0.0782,0.0885,0.0931,0.1101,0.1225,0.1306,0.1361,0.1382,0.138,0.1366,0.1322,0.1377,0.1331,0.1335,0.1324,0.1339,0.1273,0.1276,0.1274,0.1275,0.1276,0.1276,0,0.043,0.044,0.0505,0.0561,0.0652,0.071,0.0774,0.0858,0.0954,0.1162,0.1169,0.1278,0.1369,0.1329,0.1302,0.1275,0.1245,0.1188,0.1199,0.1209,0.1197,0.1204,0.1066,0,0,0,0,0,0.0375,0.0393,0.0435,0.0499,0.0583,0.0635,0.0754,0.0819,0.0968,0.0997,0.1097,0.1125,0.1157,0.1191,0.114,0.1223,0.1222,0.1155,0.1156,0.1226,0.1236,0.1231,0,0,0,0,0,0,0.0342,0.0381,0.0403,0.0448,0.0476,0.0552,0.0627,0.0719,0.0742,0.09,0.0913,0.1036,0.1059,0.1167,0.111,0.1118,0.109,0.1215,0.1211,0.1221,0.123,0.1237,0.1236,0,0,0,0,0]},{"header":{"parameterUnit":"m.s-1","parameterCategory":2,"la1":30.2991,"la2":30.254,"lo1":-89.0895,"lo2":-89.0444,"dy":0.0017,"dx":0.0017,"nx":28,"ny":28,"refTime":"2023-08-16T03:00:00:Z","depth":"4","parameterNumber":3,"parameterNumberName":"V-component_of_CURRENTS"},"data":[0,0,0,0,0,0,0,0,0,0,0,0,0,0,0,0,0,0,0,0,0,0,0,0,0,0,0,0,0,0,0,0,0,0,0,0,0,0,0,0,0,0,0,0,0,0,0,0,0,0,0,0,0,0,0,0,0,0,0.0016,0.0016,0,0.0015,0.0015,0.0015,-0.0016,-0.0016,-0.0017,-0.0017,-0.0009,-0.0008,-0.0007,0,0,0,0,0,0,0,0,0,0,0,0,0,-0.001,-0.001,0.0016,0.0016,0.0016,0.0015,0.0015,0.0015,-0.0015,-0.0016,-0.0017,-0.0017,-0.0009,-0.0008,-0.0007,0,0,0,0,0,0,0,0,0,0,0,0,0,-0.0006,-0.001,0.0016,0.0003,0.0002,0.0015,0.0015,0.0015,-0.0015,-0.0016,-0.0017,-0.0018,-0.0009,-0.0008,-0.0007,0.0016,0,0,-0.0004,-0.0003,0,0,0,0,0,0,0,0,-0.0006,-0.0006,0.0005,0.0004,0.0003,0.0002,0.0009,0.0017,-0.0015,-0.0012,-0.0017,-0.0018,-0.0002,-0.0001,-0.0004,0.0016,0.0017,-0.0004,-0.0003,-0.0002,-0.0002,0,0,0,0,0,0,0,-0.0007,-0.0006,0.0013,0.0005,0.0004,-0.0002,-0.0003,0.001,-0.0004,-0.0012,-0.0014,-0.0009,-0.0003,-0.0005,-0.0004,0.0017,-0.0004,-0.0003,-0.0002,-0.0002,0.0007,0.0007,0,0,0,0,0,0,0.0,-0.0006,0.0013,0.0013,-0.0001,-0.0001,-0.0002,0.0001,-0.0005,-0.0005,-0.0008,-0.001,-0.0006,-0.0005,-0.0004,0.0021,-0.0002,-0.0001,-0.0001,0.0008,0.0007,0.0007,0,0,0,0,0,0,-0.0001,0.0002,0.0013,0.0006,0.0007,0.0,0.0003,0.0001,0.0002,-0.0001,-0.0003,-0.0005,-0.0007,-0.0005,-0.0007,0.0021,-0.0001,0.0,0.0008,0.0008,0.0007,0.0071,0,0,0,0,0,0,-0.0001,0.0001,0.0001,0.0006,0.0008,0.0021,0.0004,0.0002,0.0007,0.0004,0.0002,0.0001,-0.0007,-0.0009,-0.0006,0.0022,0.0001,0.0009,0.0008,0.0007,0.007,0.0073,0.0076,0,0,0,0,0,-0.0002,0.0022,0.0001,0.0004,0.0009,0.0021,0.0021,0.0012,0.0008,0.0009,-0.0004,0.0001,-0.0012,-0.0008,-0.0005,0.0024,0.0009,0.0008,0.0007,0.0068,0.0072,0.0075,0,0,0,0,0,0,0.0018,0.0021,-0.0001,0.0022,0.0014,0.0017,0.0026,0.002,0.0012,0.0009,0.0001,-0.0001,0.001,-0.0002,0.0003,0.0018,-0.0002,-0.0002,0.0043,0.0047,0.005,0.0028,0.0002,0,0,0,0,0,0.0019,0.0043,0.0024,0.0048,0.0037,0.0029,0.0033,0.0025,0.0023,0.0019,0.0025,0.0017,0.001,0.0012,0.0008,0.0023,-0.0016,0.0038,0.0041,0.0044,0.0025,-0.0023,-0.0025,0.0004,0.0004,0.0004,0,0,0.0031,0.0046,0.0051,0.0055,0.0047,0.0064,0.0029,0.0041,0.0069,0.0024,0.0066,0.0036,0.0014,0.0024,0.0028,0.0019,0.0019,0.0043,0.0046,0.0024,-0.0024,-0.0027,-0.0029,0.0003,0.0003,0.0003,0,0,0.0088,0.0075,0.0101,0.0101,0.0098,0.0097,0.0102,0.01,0.01,0.0124,0.0091,0.0059,0.0088,0.0052,0.0042,0.0056,0.0037,0.007,0.0074,0.003,0.0027,0.0024,-0.0009,-0.0015,0.0071,0.0072,0.0072,0,0.0096,0.0129,0.0111,0.0139,0.0146,0.0119,0.0138,0.015,0.0158,0.0139,0.0147,0.0114,0.0097,0.007,0.0063,0.0066,0.0037,0.0072,0.0035,0.0031,0.0027,-0.0007,-0.0015,0.0074,0.0074,0.0074,0.0074,0,0.0165,0.0184,0.0206,0.0231,0.0236,0.0254,0.025,0.0258,0.026,0.0245,0.0221,0.0183,0.0143,0.0144,0.011,0.0069,0.0059,0.005,0.0032,0.0029,-0.0007,-0.0016,0.0079,0.0078,0.0077,0.0076,0,0,0.019,0.0237,0.0243,0.0254,0.0277,0.0288,0.0327,0.0314,0.0312,0.0312,0.0289,0.0256,0.0193,0.0171,0.0127,0.0079,0.0029,0.0049,0.0045,0.0025,-0.0063,-0.0055,-0.0065,0.0019,0.0018,0.0016,-0.0069,0,0.0234,0.0305,0.0316,0.0373,0.0388,0.0373,0.041,0.0398,0.0379,0.0357,0.0285,0.0257,0.0224,0.0188,0.0136,0.0044,0.0003,0.0052,-0.0068,-0.0072,-0.0056,-0.0077,0.0011,-0.0076,-0.0078,-0.008,-0.0081,0,0.0278,0.0325,0.038,0.0417,0.0416,0.0454,0.0451,0.0477,0.0426,0.0398,0.0334,0.0276,0.0188,0.0172,0.0035,0.0069,-0.0,-0.0058,-0.0062,-0.0092,-0.0083,-0.008,-0.0099,-0.0097,-0.0096,-0.0095,-0.0094,0,0.0294,0.0358,0.0406,0.0422,0.0467,0.0479,0.05,0.0475,0.0473,0.0407,0.0375,0.0277,0.022,0.0125,-0.0001,0.0011,-0.0149,-0.0139,-0.019,-0.0189,-0.0197,-0.0193,-0.0233,-0.0233,-0.0232,-0.0232,-0.0232,0,0.0327,0.0362,0.0419,0.0446,0.0492,0.0506,0.0528,0.0521,0.0492,0.047,0.039,0.0343,0.0201,0.0094,-0.0005,-0.0132,-0.0146,-0.0207,-0.0219,-0.0165,-0.0157,-0.0202,-0.0198,-0.0235,-0.0235,-0.0234,-0.0234,0,0.0327,0.0368,0.0423,0.0481,0.0502,0.0531,0.0568,0.0571,0.0546,0.0513,0.0491,0.0371,0.0233,0.01,-0.0076,-0.0134,-0.0254,-0.0291,-0.0227,-0.0231,-0.0261,-0.0252,-0.0354,-0.0355,-0.0355,-0.0356,-0.0356,0,0.0333,0.0366,0.0448,0.048,0.0509,0.0558,0.059,0.0598,0.0592,0.0531,0.0504,0.0368,0.0277,0.0039,-0.0095,-0.0271,-0.0289,-0.0337,-0.0305,-0.0276,-0.0278,-0.0268,-0.0259,-0.0357,-0.0357,-0.0357,-0.0357,0,0.034,0.0371,0.0418,0.049,0.0537,0.0584,0.0622,0.0624,0.0617,0.0598,0.0495,0.037,0.0209,0.0031,-0.0112,-0.0233,-0.03,-0.0343,-0.0342,-0.0313,-0.0281,-0.028,-0.027,-0.0359,-0.0359,-0.0359,-0.0358,0,0.034,0.0367,0.0432,0.049,0.0549,0.0584,0.0611,0.0606,0.0605,0.0545,0.0508,0.0346,0.0248,0.005,-0.008,-0.0204,-0.0223,-0.0239,-0.0244,-0.0244,-0.0183,-0.0125,-0.0181,0,0,0,0,0,0.0338,0.0369,0.0423,0.0482,0.0537,0.0571,0.0617,0.0634,0.0635,0.0567,0.054,0.0394,0.0184,0.0083,-0.0042,-0.0083,-0.024,-0.0229,-0.026,-0.0369,-0.0367,-0.0313,0,0,0,0,0,0,0.0336,0.0386,0.0417,0.0467,0.0498,0.0552,0.0585,0.0589,0.055,0.0532,0.0411,0.0372,0.0156,0.0241,-0.0049,-0.0086,-0.0116,-0.0326,-0.0328,-0.037,-0.0368,-0.0367,-0.0311,0,0,0,0,0]}]]